Location: Birkenwerder
(52.6919°N, 13.2774°E)
Time: 22:11:24
(UTC+00:00)

CZ-4C R/B - Pass Details

Date: 07 June 2020
Orbit: 463 x 637 km, 98.0° (Epoch: 11 July)

Event Time Altitude Azimuth Distance (km) Brightness Sun altitude
Exits shadow 00:37:53 13° 170° (S) 1,833 5.5 -11.9°
Maximum altitude 00:41:51 78° 255° (WSW) 659 3.6 -11.7°
Drops below altitude 10° 00:46:20 10° 343° (NNW) 2,037 7.0 -11.4°
Sets 00:48:33 0° 345° (NNW) 2,943 7.9 -11.3°
